ASA284 KLAX-KEWR

Flight info

Callsign ASA284
Flight time N/A
Altitude 35000
Route OSHNN1 BEALE J146 DVC HBU MCK OVR DSM EVOTE NELLS KEEHO J584 SLT FQM3
Aircraft B738/M-SDE2E3FGHIRWXY/LB1

Departure

Time 2026-04-26 05:15
Airport Los Angeles International Airport (KLAX)

Arrival

Time N/A
Airport Newark Liberty International Airport (KEWR)
Time Latitude Longitude Altitude Speed Heading
2026-04-26 04:47 33.94144 -118.40268 92 ft 0 kts 85°
2026-04-26 05:03 33.94144 -118.40271 92 ft 3 kts 85°
2026-04-26 05:03 33.94143 -118.40300 92 ft 1 kts 86°
2026-04-26 05:03 33.94144 -118.40324 92 ft 4 kts 136°
2026-04-26 05:04 33.94156 -118.40332 93 ft 3 kts 173°
2026-04-26 05:04 33.94130 -118.40328 94 ft 4 kts 173°
2026-04-26 05:04 33.94103 -118.40324 94 ft 4 kts 173°
2026-04-26 05:04 33.94076 -118.40320 94 ft 4 kts 173°
2026-04-26 05:05 33.94049 -118.40317 95 ft 4 kts 173°
2026-04-26 05:05 33.94033 -118.40314 94 ft 0 kts 173°
2026-04-26 05:08 33.94015 -118.40311 94 ft 8 kts 168°
2026-04-26 05:08 33.93924 -118.40295 95 ft 16 kts 174°
2026-04-26 05:08 33.93855 -118.40244 99 ft 11 kts 94°
2026-04-26 05:09 33.93868 -118.40094 96 ft 25 kts 83°
2026-04-26 05:09 33.93894 -118.39847 95 ft 32 kts 83°
2026-04-26 05:09 33.93920 -118.39585 94 ft 31 kts 83°
2026-04-26 05:09 33.93948 -118.39339 92 ft 29 kts 84°
2026-04-26 05:10 33.93970 -118.39107 93 ft 27 kts 83°
2026-04-26 05:10 33.93993 -118.38873 93 ft 31 kts 83°
2026-04-26 05:10 33.94020 -118.38617 95 ft 30 kts 83°
2026-04-26 05:10 33.94045 -118.38374 95 ft 28 kts 83°
2026-04-26 05:11 33.94068 -118.38154 93 ft 21 kts 83°
2026-04-26 05:11 33.94079 -118.38043 92 ft 10 kts 85°
2026-04-26 05:11 33.94073 -118.38014 92 ft 0 kts 126°
2026-04-26 05:13 33.94060 -118.38004 93 ft 6 kts 152°
2026-04-26 05:13 33.94006 -118.37995 93 ft 8 kts 186°
2026-04-26 05:13 33.93983 -118.38033 93 ft 0 kts 262°
2026-04-26 05:13 33.93983 -118.38034 93 ft 0 kts 262°
2026-04-26 05:15 33.93968 -118.38182 98 ft 48 kts 263°
2026-04-26 05:15 33.93899 -118.38854 95 ft 113 kts 263°
2026-04-26 05:15 33.93786 -118.40003 193 ft 155 kts 263°
2026-04-26 05:15 33.93646 -118.41320 844 ft 162 kts 263°
2026-04-26 05:16 33.93502 -118.42652 1682 ft 161 kts 262°
2026-04-26 05:16 33.93351 -118.44043 2226 ft 181 kts 264°
2026-04-26 05:16 33.93201 -118.45642 2475 ft 207 kts 263°
2026-04-26 05:16 33.92668 -118.47311 2821 ft 225 kts 230°
2026-04-26 05:17 33.91481 -118.48679 3154 ft 246 kts 225°
2026-04-26 05:17 33.90247 -118.50155 3832 ft 252 kts 231°
2026-04-26 05:17 33.89122 -118.51763 4633 ft 252 kts 232°
2026-04-26 05:17 33.88000 -118.53390 4968 ft 255 kts 232°
2026-04-26 05:18 33.86816 -118.54987 4978 ft 257 kts 221°
2026-04-26 05:18 33.85185 -118.55892 5000 ft 265 kts 192°
2026-04-26 05:18 33.83325 -118.55830 5004 ft 272 kts 172°
2026-04-26 05:18 33.81466 -118.55328 5001 ft 274 kts 170°
2026-04-26 05:19 33.79607 -118.54792 4991 ft 275 kts 170°
2026-04-26 05:19 33.77744 -118.54265 4980 ft 275 kts 170°
2026-04-26 05:19 33.75880 -118.53751 4969 ft 274 kts 171°
2026-04-26 05:19 33.74026 -118.53246 4976 ft 272 kts 171°
2026-04-26 05:20 33.72209 -118.52755 4971 ft 271 kts 171°
2026-04-26 05:20 33.70443 -118.51987 4964 ft 275 kts 148°
2026-04-26 05:20 33.69185 -118.50251 5201 ft 283 kts 119°
2026-04-26 05:20 33.68451 -118.48033 6008 ft 287 kts 111°
2026-04-26 05:21 33.67803 -118.45761 6856 ft 289 kts 111°
2026-04-26 05:21 33.67149 -118.43463 7639 ft 293 kts 111°
2026-04-26 05:21 33.66476 -118.41140 8433 ft 297 kts 112°
2026-04-26 05:21 33.65784 -118.38788 9228 ft 301 kts 112°
2026-04-26 05:22 33.65078 -118.36408 10017 ft 305 kts 112°
2026-04-26 05:22 33.64427 -118.33976 10458 ft 322 kts 103°
2026-04-26 05:22 33.64334 -118.31136 10649 ft 349 kts 89°
2026-04-26 05:22 33.64415 -118.28175 10841 ft 370 kts 90°
2026-04-26 05:23 33.64455 -118.25037 11335 ft 380 kts 91°
2026-04-26 05:23 33.64483 -118.21845 12009 ft 385 kts 88°
2026-04-26 05:23 33.65099 -118.18700 12618 ft 393 kts 64°
2026-04-26 05:23 33.66646 -118.16000 13331 ft 394 kts 43°
2026-04-26 05:24 33.68764 -118.13920 13985 ft 396 kts 34°
2026-04-26 05:24 33.71006 -118.11951 14548 ft 402 kts 33°
2026-04-26 05:24 33.73287 -118.09973 15165 ft 406 kts 33°
2026-04-26 05:24 33.75578 -118.07972 15765 ft 409 kts 33°
2026-04-26 05:25 33.77882 -118.05935 16376 ft 414 kts 33°
2026-04-26 05:25 33.80211 -118.03858 16880 ft 421 kts 33°
2026-04-26 05:25 33.82575 -118.01736 17454 ft 425 kts 33°
2026-04-26 05:25 33.84918 -117.99626 18119 ft 428 kts 33°
2026-04-26 05:26 33.87313 -117.97469 18676 ft 432 kts 33°
2026-04-26 05:26 33.89726 -117.95295 19209 ft 435 kts 33°
2026-04-26 05:26 33.92156 -117.93098 19706 ft 439 kts 34°
2026-04-26 05:26 33.94605 -117.90862 20166 ft 444 kts 34°
2026-04-26 05:27 33.97084 -117.88590 20623 ft 449 kts 34°
2026-04-26 05:27 33.99580 -117.86305 21083 ft 453 kts 34°
2026-04-26 05:27 34.02100 -117.83997 21540 ft 457 kts 34°
2026-04-26 05:27 34.04645 -117.81667 21993 ft 462 kts 34°
2026-04-26 05:28 34.07216 -117.79310 22443 ft 466 kts 34°
2026-04-26 05:28 34.09736 -117.76825 22862 ft 473 kts 43°
2026-04-26 05:28 34.11920 -117.73821 23312 ft 479 kts 49°
2026-04-26 05:28 34.13982 -117.70646 23717 ft 483 kts 51°
2026-04-26 05:29 34.16037 -117.67422 24080 ft 486 kts 51°
2026-04-26 05:29 34.18126 -117.64188 24462 ft 489 kts 50°
2026-04-26 05:29 34.20216 -117.61015 24918 ft 489 kts 50°
2026-04-26 05:29 34.22353 -117.57818 25379 ft 490 kts 49°
2026-04-26 05:30 34.24510 -117.54614 25681 ft 494 kts 49°
2026-04-26 05:30 34.26689 -117.51379 25972 ft 498 kts 49°
2026-04-26 05:30 34.28879 -117.48120 26268 ft 501 kts 49°
2026-04-26 05:30 34.31081 -117.44835 26562 ft 505 kts 50°
2026-04-26 05:31 34.33300 -117.41519 26887 ft 507 kts 50°
2026-04-26 05:31 34.35521 -117.38196 27226 ft 510 kts 50°
2026-04-26 05:31 34.37754 -117.34853 27547 ft 512 kts 50°
2026-04-26 05:31 34.39999 -117.31489 27845 ft 514 kts 50°
2026-04-26 05:32 34.42251 -117.28110 28108 ft 517 kts 50°
2026-04-26 05:32 34.44484 -117.24758 28394 ft 519 kts 50°
2026-04-26 05:32 34.46755 -117.21345 28703 ft 522 kts 50°
2026-04-26 05:32 34.49036 -117.17912 28956 ft 524 kts 50°
2026-04-26 05:33 34.51318 -117.14475 29416 ft 521 kts 50°
2026-04-26 05:33 34.53579 -117.11068 30018 ft 516 kts 50°
2026-04-26 05:33 34.55836 -117.07693 30372 ft 515 kts 50°
2026-04-26 05:33 34.58126 -117.04344 30646 ft 516 kts 49°
2026-04-26 05:34 34.60433 -117.01005 30923 ft 517 kts 49°
2026-04-26 05:34 34.62749 -116.97658 31204 ft 517 kts 49°
2026-04-26 05:34 34.65058 -116.94311 31518 ft 517 kts 49°
2026-04-26 05:34 34.67362 -116.90958 31822 ft 517 kts 49°
2026-04-26 05:35 34.69633 -116.87642 32099 ft 518 kts 50°
2026-04-26 05:35 34.71932 -116.84277 32371 ft 518 kts 50°
2026-04-26 05:35 34.74236 -116.80901 32592 ft 520 kts 50°
2026-04-26 05:35 34.76544 -116.77514 32848 ft 521 kts 50°
2026-04-26 05:36 34.78856 -116.74119 33148 ft 520 kts 50°
2026-04-26 05:36 34.81163 -116.70729 33417 ft 520 kts 50°
2026-04-26 05:36 34.83471 -116.67336 33641 ft 521 kts 50°
2026-04-26 05:36 34.85787 -116.63930 33876 ft 522 kts 50°
2026-04-26 05:37 34.88156 -116.60588 34098 ft 521 kts 47°
2026-04-26 05:37 34.90594 -116.57324 34369 ft 521 kts 46°
2026-04-26 05:37 34.93059 -116.54094 34580 ft 521 kts 46°
2026-04-26 05:37 34.95539 -116.50855 34672 ft 524 kts 46°
2026-04-26 05:38 34.98028 -116.47585 34788 ft 526 kts 46°
2026-04-26 05:38 35.00471 -116.44349 34809 ft 527 kts 47°
2026-04-26 05:38 35.05395 -116.37761 34799 ft 523 kts 47°
2026-04-26 05:39 35.10266 -116.31200 34807 ft 520 kts 47°
2026-04-26 05:39 35.15116 -116.24657 34789 ft 518 kts 47°
2026-04-26 05:40 35.19946 -116.18136 34807 ft 517 kts 47°
2026-04-26 05:40 35.24774 -116.11607 34831 ft 517 kts 47°
2026-04-26 05:41 35.29560 -116.05121 34824 ft 517 kts 47°
2026-04-26 05:41 35.34381 -115.98576 34822 ft 517 kts 47°
2026-04-26 05:42 35.39198 -115.92023 34812 ft 517 kts 47°
2026-04-26 05:42 35.44007 -115.85468 34832 ft 517 kts 47°
2026-04-26 05:43 35.48809 -115.78910 34817 ft 516 kts 48°
2026-04-26 05:43 35.53570 -115.72395 34831 ft 515 kts 48°
2026-04-26 05:44 35.58355 -115.65835 34827 ft 515 kts 48°
2026-04-26 05:44 35.63131 -115.59275 34805 ft 515 kts 48°
2026-04-26 05:45 35.67905 -115.52705 34826 ft 515 kts 48°
2026-04-26 05:45 35.72678 -115.46122 34819 ft 517 kts 48°
2026-04-26 05:46 35.77460 -115.39507 34814 ft 518 kts 48°
2026-04-26 05:46 35.82253 -115.32862 34807 ft 519 kts 48°
2026-04-26 05:47 35.87021 -115.26238 34787 ft 521 kts 48°
2026-04-26 05:47 35.91830 -115.19545 34804 ft 522 kts 49°
2026-04-26 05:48 35.96642 -115.12835 34798 ft 522 kts 49°
2026-04-26 05:48 36.00638 -115.07252 34791 ft 522 kts 49°
2026-04-26 05:49 36.07825 -114.97187 34754 ft 520 kts 49°
2026-04-26 05:50 36.13366 -114.89406 34713 ft 518 kts 49°
2026-04-26 05:50 36.17335 -114.83782 34702 ft 517 kts 52°
2026-04-26 05:50 36.19202 -114.80021 34687 ft 511 kts 71°
2026-04-26 05:51 36.20447 -114.75920 34715 ft 509 kts 73°
2026-04-26 05:51 36.22832 -114.67730 34676 ft 509 kts 73°
2026-04-26 05:52 36.25280 -114.59499 34669 ft 509 kts 72°
2026-04-26 05:52 36.27775 -114.51279 34677 ft 510 kts 72°
2026-04-26 05:53 36.30283 -114.43046 34667 ft 510 kts 72°